Time,TemperatureF,DewpointF,PressureIn,WindDirection,WindDirectionDegrees,WindSpeedMPH,WindSpeedGustMPH,Humidity,HourlyPrecipIn,Conditions,Clouds,dailyrainin,SoftwareType,DateUTC
2013-05-29 00:01:00,58.4,44.1,30.12,East,85,3.0,7.0,59,0.00,,,0.00,VWS V14.01,2013-05-29 04:01:00,
2013-05-29 00:06:00,58.4,45.0,30.12,SSW,201,0.0,5.0,61,0.00,,,0.00,VWS V14.01,2013-05-29 04:06:00,
2013-05-29 00:11:00,58.3,44.5,30.12,SSW,205,0.0,6.0,60,0.00,,,0.00,VWS V14.01,2013-05-29 04:11:00,
2013-05-29 00:16:00,58.2,44.8,30.11,SE,134,2.0,5.0,61,0.00,,,0.00,VWS V14.01,2013-05-29 04:16:00,
2013-05-29 00:21:00,58.0,44.6,30.11,SW,224,1.0,7.0,61,0.00,,,0.00,VWS V14.01,2013-05-29 04:21:00,
2013-05-29 00:26:00,58.0,45.1,30.11,SSW,196,0.0,5.0,62,0.00,,,0.00,VWS V14.01,2013-05-29 04:26:00,
2013-05-29 00:31:00,57.9,45.0,30.11,South,176,5.0,6.0,62,0.00,,,0.00,VWS V14.01,2013-05-29 04:31:00,
2013-05-29 00:36:00,57.8,44.9,30.11,East,89,1.0,7.0,62,0.00,,,0.00,VWS V14.01,2013-05-29 04:36:00,
2013-05-29 00:41:00,57.9,45.4,30.11,West,278,0.0,8.0,63,0.00,,,0.00,VWS V14.01,2013-05-29 04:41:00,
2013-05-29 00:46:00,57.8,44.9,30.11,NW,324,0.0,3.0,62,0.00,,,0.00,VWS V14.01,2013-05-29 04:46:00,
2013-05-29 00:51:00,57.8,45.3,30.11,West,259,2.0,8.0,63,0.00,,,0.00,VWS V14.01,2013-05-29 04:51:00,
2013-05-29 00:56:00,57.7,45.6,30.10,ESE,105,0.0,1.0,64,0.00,,,0.00,VWS V14.01,2013-05-29 04:56:00,
2013-05-29 01:01:00,57.5,45.8,30.10,WNW,286,0.0,6.0,65,0.00,,,0.00,VWS V14.01,2013-05-29 05:01:00,
2013-05-29 01:06:00,57.4,45.3,30.10,SSW,213,1.0,7.0,64,0.00,,,0.00,VWS V14.01,2013-05-29 05:06:00,
2013-05-29 01:11:00,57.6,45.5,30.10,NNW,332,3.0,7.0,64,0.00,,,0.00,VWS V14.01,2013-05-29 05:11:00,
2013-05-29 01:16:00,57.6,45.1,30.10,West,275,0.0,3.0,63,0.00,,,0.00,VWS V14.01,2013-05-29 05:16:00,
2013-05-29 01:21:00,57.5,45.4,30.09,West,276,2.0,4.0,64,0.00,,,0.00,VWS V14.01,2013-05-29 05:21:00,
2013-05-29 01:26:00,57.7,45.2,30.09,NNE,18,2.0,5.0,63,0.00,,,0.00,VWS V14.01,2013-05-29 05:26:00,
2013-05-29 01:31:00,57.6,45.5,30.09,WNW,284,4.0,7.0,64,0.00,,,0.00,VWS V14.01,2013-05-29 05:31:00,
2013-05-29 01:36:00,57.5,45.8,30.09,WNW,299,0.0,4.0,65,0.00,,,0.00,VWS V14.01,2013-05-29 05:36:00,
2013-05-29 01:41:00,57.2,46.0,30.09,South,175,0.0,7.0,66,0.00,,,0.00,VWS V14.01,2013-05-29 05:41:00,
2013-05-29 01:46:00,57.0,45.8,30.09,East,90,0.0,3.0,66,0.00,,,0.00,VWS V14.01,2013-05-29 05:46:00,
2013-05-29 01:51:00,56.9,45.7,30.09,WNW,290,0.0,7.0,66,0.00,,,0.00,VWS V14.01,2013-05-29 05:51:00,
2013-05-29 01:56:00,57.0,45.8,30.09,WNW,294,2.0,4.0,66,0.00,,,0.00,VWS V14.01,2013-05-29 05:56:00,
2013-05-29 02:01:00,56.9,46.1,30.09,NW,313,2.0,8.0,67,0.00,,,0.00,VWS V14.01,2013-05-29 06:01:00,
2013-05-29 02:06:00,56.8,46.0,30.09,NW,325,0.0,2.0,67,0.00,,,0.00,VWS V14.01,2013-05-29 06:06:00,
2013-05-29 02:11:00,56.6,46.9,30.08,NW,304,4.0,5.0,70,0.00,,,0.00,VWS V14.01,2013-05-29 06:11:00,
2013-05-29 02:16:00,56.0,46.7,30.09,NNW,344,0.0,0.0,71,0.00,,,0.00,VWS V14.01,2013-05-29 06:16:00,
2013-05-29 02:21:00,55.5,47.7,30.09,NNE,15,0.0,1.0,75,0.00,,,0.00,VWS V14.01,2013-05-29 06:21:00,
2013-05-29 02:26:00,54.9,48.5,30.09,NNE,16,0.0,0.0,79,0.00,,,0.00,VWS V14.01,2013-05-29 06:26:00,
2013-05-29 02:31:00,54.4,48.4,30.09,NNE,16,0.0,0.0,80,0.00,,,0.00,VWS V14.01,2013-05-29 06:31:00,
2013-05-29 02:36:00,54.0,48.6,30.09,ESE,112,0.0,1.0,82,0.00,,,0.00,VWS V14.01,2013-05-29 06:36:00,
2013-05-29 02:41:00,53.6,48.6,30.08,WNW,286,0.0,5.0,83,0.01,,,0.01,VWS V14.01,2013-05-29 06:41:00,
2013-05-29 02:46:00,53.3,48.9,30.08,West,275,0.0,1.0,85,0.01,,,0.01,VWS V14.01,2013-05-29 06:46:00,
2013-05-29 02:51:00,53.0,48.9,30.08,West,267,0.0,1.0,86,0.02,,,0.02,VWS V14.01,2013-05-29 06:51:00,
2013-05-29 02:56:00,52.7,49.0,30.07,ESE,115,0.0,0.0,87,0.02,,,0.02,VWS V14.01,2013-05-29 06:56:00,
2013-05-29 03:01:00,52.4,49.0,30.07,ESE,115,0.0,0.0,88,0.02,,,0.02,VWS V14.01,2013-05-29 07:01:00,
2013-05-29 03:06:00,52.3,49.2,30.07,NW,322,2.0,2.0,89,0.02,,,0.02,VWS V14.01,2013-05-29 07:06:00,
2013-05-29 03:11:00,52.7,49.2,30.07,NNE,23,0.0,7.0,88,0.02,,,0.02,VWS V14.01,2013-05-29 07:11:00,
2013-05-29 03:16:00,52.9,49.1,30.07,SW,227,0.0,1.0,87,0.02,,,0.02,VWS V14.01,2013-05-29 07:16:00,
2013-05-29 03:21:00,53.0,49.5,30.07,ESE,104,1.0,5.0,88,0.02,,,0.02,VWS V14.01,2013-05-29 07:21:00,
2013-05-29 03:26:00,53.0,48.9,30.08,East,85,0.0,1.0,86,0.02,,,0.02,VWS V14.01,2013-05-29 07:26:00,
2013-05-29 03:31:00,53.0,49.2,30.08,East,85,0.0,1.0,87,0.02,,,0.02,VWS V14.01,2013-05-29 07:31:00,
2013-05-29 03:36:00,52.9,49.1,30.08,East,85,0.0,0.0,87,0.02,,,0.02,VWS V14.01,2013-05-29 07:36:00,
2013-05-29 03:41:00,52.7,49.2,30.08,East,80,0.0,1.0,88,0.02,,,0.02,VWS V14.01,2013-05-29 07:41:00,
2013-05-29 03:46:00,52.5,50.2,30.08,SSW,198,0.0,0.0,92,0.01,,,0.02,VWS V14.01,2013-05-29 07:46:00,
2013-05-29 03:51:00,52.3,49.5,30.08,SW,227,0.0,3.0,90,0.01,,,0.02,VWS V14.01,2013-05-29 07:51:00,
2013-05-29 03:56:00,52.2,49.4,30.08,SW,227,0.0,1.0,90,0.00,,,0.02,VWS V14.01,2013-05-29 07:56:00,
2013-05-29 04:01:00,52.1,49.3,30.08,WSW,255,0.0,3.0,90,0.00,,,0.02,VWS V14.01,2013-05-29 08:01:00,
2013-05-29 04:06:00,52.1,49.6,30.07,WSW,255,0.0,0.0,91,0.00,,,0.02,VWS V14.01,2013-05-29 08:06:00,
2013-05-29 04:11:00,52.1,49.6,30.07,WSW,255,0.0,0.0,91,0.00,,,0.02,VWS V14.01,2013-05-29 08:11:00,
2013-05-29 04:16:00,52.1,49.6,30.07,WSW,255,0.0,0.0,91,0.00,,,0.02,VWS V14.01,2013-05-29 08:16:00,
2013-05-29 04:21:00,52.2,49.7,30.07,NNE,30,0.0,4.0,91,0.01,,,0.03,VWS V14.01,2013-05-29 08:21:00,
2013-05-29 04:26:00,52.2,49.7,30.06,NNE,30,0.0,1.0,91,0.01,,,0.03,VWS V14.01,2013-05-29 08:26:00,
2013-05-29 04:31:00,52.1,49.6,30.07,North,11,0.0,3.0,91,0.02,,,0.04,VWS V14.01,2013-05-29 08:31:00,
2013-05-29 04:36:00,52.1,49.8,30.06,North,355,0.0,0.0,92,0.02,,,0.04,VWS V14.01,2013-05-29 08:36:00,
2013-05-29 04:41:00,52.1,49.8,30.07,NE,47,0.0,4.0,92,0.02,,,0.04,VWS V14.01,2013-05-29 08:41:00,
2013-05-29 04:46:00,52.1,49.8,30.07,NNW,348,4.0,6.0,92,0.02,,,0.04,VWS V14.01,2013-05-29 08:46:00,
2013-05-29 04:51:00,51.9,49.9,30.07,North,360,0.0,6.0,93,0.02,,,0.04,VWS V14.01,2013-05-29 08:51:00,
2013-05-29 04:56:00,51.8,49.8,30.07,North,360,0.0,0.0,93,0.02,,,0.04,VWS V14.01,2013-05-29 08:56:00,
2013-05-29 05:01:00,51.8,49.8,30.07,NNW,346,0.0,3.0,93,0.02,,,0.04,VWS V14.01,2013-05-29 09:01:00,
2013-05-29 05:06:00,51.7,50.0,30.08,NNW,346,0.0,0.0,94,0.02,,,0.04,VWS V14.01,2013-05-29 09:06:00,
2013-05-29 05:11:00,51.7,50.0,30.08,NNW,346,0.0,0.0,94,0.03,,,0.05,VWS V14.01,2013-05-29 09:11:00,
2013-05-29 05:16:00,51.7,50.0,30.08,NNW,346,0.0,0.0,94,0.03,,,0.05,VWS V14.01,2013-05-29 09:16:00,
2013-05-29 05:21:00,51.7,50.0,30.08,NNW,346,0.0,0.0,94,0.04,,,0.06,VWS V14.01,2013-05-29 09:21:00,
2013-05-29 05:26:00,51.7,50.0,30.08,NNW,346,0.0,0.0,94,0.03,,,0.06,VWS V14.01,2013-05-29 09:26:00,
2013-05-29 05:31:00,51.7,50.3,30.08,NNW,346,0.0,0.0,95,0.03,,,0.06,VWS V14.01,2013-05-29 09:31:00,
2013-05-29 05:36:00,51.7,50.3,30.07,NNW,346,0.0,0.0,95,0.03,,,0.07,VWS V14.01,2013-05-29 09:36:00,
2013-05-29 05:41:00,51.7,50.3,30.07,SW,236,0.0,4.0,95,0.03,,,0.07,VWS V14.01,2013-05-29 09:41:00,
2013-05-29 05:46:00,51.8,50.4,30.07,NNW,333,0.0,0.0,95,0.03,,,0.07,VWS V14.01,2013-05-29 09:46:00,
2013-05-29 05:51:00,51.8,50.4,30.07,NNW,342,0.0,1.0,95,0.03,,,0.07,VWS V14.01,2013-05-29 09:51:00,
2013-05-29 05:56:00,51.9,50.5,30.07,WNW,289,0.0,0.0,95,0.03,,,0.07,VWS V14.01,2013-05-29 09:56:00,
2013-05-29 06:01:00,51.9,50.5,30.08,WSW,240,0.0,2.0,95,0.04,,,0.08,VWS V14.01,2013-05-29 10:01:00,
2013-05-29 06:06:00,51.9,50.5,30.08,WSW,240,0.0,0.0,95,0.06,,,0.10,VWS V14.01,2013-05-29 10:06:00,
2013-05-29 06:11:00,52.0,50.9,30.07,SW,214,0.0,4.0,96,0.06,,,0.10,VWS V14.01,2013-05-29 10:11:00,
2013-05-29 06:16:00,52.0,50.9,30.07,SW,215,0.0,0.0,96,0.05,,,0.10,VWS V14.01,2013-05-29 10:16:00,
2013-05-29 06:21:00,52.0,50.9,30.07,SW,215,0.0,0.0,96,0.06,,,0.11,VWS V14.01,2013-05-29 10:21:00,
2013-05-29 06:26:00,52.1,51.0,30.07,SW,215,0.0,0.0,96,0.07,,,0.13,VWS V14.01,2013-05-29 10:26:00,
2013-05-29 06:31:00,52.1,51.0,30.06,NW,317,2.0,4.0,96,0.07,,,0.13,VWS V14.01,2013-05-29 10:31:00,
2013-05-29 06:36:00,52.1,51.0,30.06,West,280,0.0,0.0,96,0.07,,,0.14,VWS V14.01,2013-05-29 10:36:00,
2013-05-29 06:40:00,52.1,51.0,30.06,North,5,1.0,4.0,96,0.07,,,0.14,VWS V14.01,2013-05-29 10:40:00,
2013-05-29 06:45:00,52.2,51.1,30.06,SSW,211,0.0,0.0,96,0.07,,,0.14,VWS V14.01,2013-05-29 10:45:00,
2013-05-29 06:50:00,52.2,51.1,30.06,WSW,250,0.0,4.0,96,0.07,,,0.14,VWS V14.01,2013-05-29 10:50:00,
2013-05-29 06:55:00,52.2,51.1,30.06,WNW,282,5.0,6.0,96,0.07,,,0.14,VWS V14.01,2013-05-29 10:55:00,
2013-05-29 07:00:00,52.2,51.1,30.06,SW,214,1.0,6.0,96,0.07,,,0.14,VWS V14.01,2013-05-29 11:00:00,
2013-05-29 07:05:00,52.2,51.1,30.06,SE,140,4.0,4.0,96,0.05,,,0.14,VWS V14.01,2013-05-29 11:05:00,
2013-05-29 07:10:00,52.2,51.1,30.07,WNW,293,0.0,4.0,96,0.05,,,0.14,VWS V14.01,2013-05-29 11:10:00,
2013-05-29 07:15:00,52.2,51.1,30.07,WNW,282,0.0,0.0,96,0.04,,,0.14,VWS V14.01,2013-05-29 11:15:00,
2013-05-29 07:20:00,52.1,51.0,30.06,NW,321,0.0,3.0,96,0.04,,,0.14,VWS V14.01,2013-05-29 11:20:00,
2013-05-29 07:25:00,52.1,51.0,30.07,WNW,287,0.0,1.0,96,0.03,,,0.15,VWS V14.01,2013-05-29 11:25:00,
2013-05-29 07:30:00,52.1,51.0,30.06,WNW,287,0.0,1.0,96,0.04,,,0.16,VWS V14.01,2013-05-29 11:30:00,
2013-05-29 07:35:00,52.1,51.0,30.06,WNW,287,0.0,1.0,96,0.02,,,0.16,VWS V14.01,2013-05-29 11:35:00,
2013-05-29 07:40:00,52.2,51.1,30.06,South,169,0.0,2.0,96,0.02,,,0.16,VWS V14.01,2013-05-29 11:40:00,
2013-05-29 07:45:00,52.2,51.1,30.06,SE,144,0.0,1.0,96,0.02,,,0.16,VWS V14.01,2013-05-29 11:45:00,
2013-05-29 07:50:00,52.1,51.0,30.06,ENE,62,0.0,1.0,96,0.02,,,0.16,VWS V14.01,2013-05-29 11:50:00,
2013-05-29 07:55:00,52.2,51.1,30.06,NE,55,0.0,0.0,96,0.02,,,0.16,VWS V14.01,2013-05-29 11:55:00,
2013-05-29 08:00:00,52.1,51.0,30.05,NNW,335,0.0,2.0,96,0.02,,,0.16,VWS V14.01,2013-05-29 12:00:00,
2013-05-29 08:05:00,52.1,51.0,30.06,SW,229,0.0,1.0,96,0.02,,,0.16,VWS V14.01,2013-05-29 12:05:00,
2013-05-29 08:10:00,52.1,51.0,30.06,NW,317,0.0,2.0,96,0.03,,,0.17,VWS V14.01,2013-05-29 12:10:00,
2013-05-29 08:15:00,52.1,51.0,30.05,NW,317,0.0,0.0,96,0.04,,,0.18,VWS V14.01,2013-05-29 12:15:00,
2013-05-29 08:20:00,52.2,51.1,30.05,NW,317,0.0,1.0,96,0.05,,,0.19,VWS V14.01,2013-05-29 12:20:00,
2013-05-29 08:25:00,52.1,51.0,30.05,ENE,76,0.0,0.0,96,0.04,,,0.20,VWS V14.01,2013-05-29 12:25:00,
2013-05-29 08:30:00,52.1,51.0,30.05,SW,225,0.0,4.0,96,0.05,,,0.20,VWS V14.01,2013-05-29 12:30:00,
2013-05-29 08:35:00,52.1,51.0,30.05,NW,315,0.0,1.0,96,0.04,,,0.20,VWS V14.01,2013-05-29 12:35:00,
2013-05-29 08:40:00,52.1,51.0,30.05,WNW,294,0.0,4.0,96,0.04,,,0.20,VWS V14.01,2013-05-29 12:40:00,
2013-05-29 08:45:00,52.2,51.1,30.05,WNW,288,0.0,1.0,96,0.04,,,0.20,VWS V14.01,2013-05-29 12:45:00,
2013-05-29 08:50:00,52.2,51.1,30.05,NW,306,0.0,2.0,96,0.05,,,0.21,VWS V14.01,2013-05-29 12:50:00,
2013-05-29 08:55:00,52.3,51.2,30.05,WSW,246,0.0,2.0,96,0.06,,,0.22,VWS V14.01,2013-05-29 12:55:00,
2013-05-29 09:00:00,52.3,51.2,30.05,West,268,1.0,5.0,96,0.06,,,0.22,VWS V14.01,2013-05-29 13:00:00,
2013-05-29 09:05:00,52.4,51.3,30.04,SSW,204,1.0,5.0,96,0.10,,,0.26,VWS V14.01,2013-05-29 13:05:00,
2013-05-29 09:10:00,52.4,51.3,30.04,West,281,4.0,5.0,96,0.14,,,0.30,VWS V14.01,2013-05-29 13:10:00,
2013-05-29 09:15:00,52.4,51.3,30.05,NNW,340,0.0,4.0,96,0.13,,,0.31,VWS V14.01,2013-05-29 13:15:00,
2013-05-29 09:20:00,52.5,51.7,30.04,West,273,0.0,9.0,97,0.14,,,0.32,VWS V14.01,2013-05-29 13:20:00,
2013-05-29 09:25:00,52.6,51.8,30.05,West,274,0.0,0.0,97,0.15,,,0.34,VWS V14.01,2013-05-29 13:25:00,
2013-05-29 09:30:00,52.6,51.8,30.05,NW,305,0.0,4.0,97,0.17,,,0.36,VWS V14.01,2013-05-29 13:30:00,
2013-05-29 09:35:00,52.7,51.9,30.04,West,275,0.0,2.0,97,0.17,,,0.37,VWS V14.01,2013-05-29 13:35:00,
2013-05-29 09:40:00,52.8,52.0,30.04,WSW,241,0.0,4.0,97,0.18,,,0.38,VWS V14.01,2013-05-29 13:40:00,
2013-05-29 09:45:00,52.9,52.1,30.04,West,273,0.0,1.0,97,0.18,,,0.38,VWS V14.01,2013-05-29 13:45:00,
2013-05-29 09:50:00,53.0,52.2,30.04,West,269,2.0,7.0,97,0.18,,,0.38,VWS V14.01,2013-05-29 13:50:00,
2013-05-29 09:55:00,53.1,52.3,30.04,SW,219,0.0,2.0,97,0.17,,,0.39,VWS V14.01,2013-05-29 13:55:00,
2013-05-29 10:00:00,53.2,52.4,30.04,WNW,286,3.0,7.0,97,0.17,,,0.39,VWS V14.01,2013-05-29 14:00:00,
2013-05-29 10:05:00,53.3,52.5,30.04,WNW,300,2.0,4.0,97,0.13,,,0.39,VWS V14.01,2013-05-29 14:05:00,
2013-05-29 10:10:00,53.4,52.6,30.04,West,277,2.0,8.0,97,0.13,,,0.39,VWS V14.01,2013-05-29 14:10:00,
2013-05-29 10:15:00,53.5,52.4,30.04,WSW,250,3.0,7.0,96,0.09,,,0.40,VWS V14.01,2013-05-29 14:15:00,
2013-05-29 10:20:00,53.5,52.4,30.03,WNW,294,1.0,7.0,96,0.09,,,0.40,VWS V14.01,2013-05-29 14:20:00,
2013-05-29 10:25:00,53.7,52.6,30.02,West,267,0.0,0.0,96,0.06,,,0.40,VWS V14.01,2013-05-29 14:25:00,
2013-05-29 10:30:00,53.9,53.1,30.02,West,271,0.0,1.0,97,0.06,,,0.40,VWS V14.01,2013-05-29 14:30:00,
2013-05-29 10:35:00,54.2,53.4,30.01,NNE,14,3.0,3.0,97,0.03,,,0.40,VWS V14.01,2013-05-29 14:35:00,
2013-05-29 10:40:00,54.4,53.3,29.99,North,355,0.0,6.0,96,0.03,,,0.40,VWS V14.01,2013-05-29 14:40:00,
2013-05-29 10:45:00,54.9,53.8,30.01,SW,222,2.0,4.0,96,0.02,,,0.40,VWS V14.01,2013-05-29 14:45:00,
2013-05-29 10:50:00,55.2,54.1,30.02,NW,319,2.0,5.0,96,0.02,,,0.40,VWS V14.01,2013-05-29 14:50:00,
2013-05-29 10:55:00,55.2,53.8,30.02,SSW,213,0.0,0.0,95,0.02,,,0.40,VWS V14.01,2013-05-29 14:55:00,
2013-05-29 11:00:00,55.1,53.7,30.01,West,280,0.0,4.0,95,0.02,,,0.40,VWS V14.01,2013-05-29 15:00:00,
2013-05-29 11:05:00,55.5,54.4,30.01,West,264,0.0,0.0,96,0.01,,,0.40,VWS V14.01,2013-05-29 15:05:00,
2013-05-29 11:10:00,56.1,55.0,30.02,West,276,2.0,6.0,96,0.01,,,0.40,VWS V14.01,2013-05-29 15:10:00,
2013-05-29 11:15:00,55.9,54.2,30.02,West,275,0.0,0.0,94,0.00,,,0.40,VWS V14.01,2013-05-29 15:15:00,
2013-05-29 11:20:00,55.9,54.5,30.02,SW,234,1.0,5.0,95,0.00,,,0.40,VWS V14.01,2013-05-29 15:20:00,
2013-05-29 11:25:00,55.9,54.5,30.02,NNW,339,0.0,2.0,95,0.00,,,0.40,VWS V14.01,2013-05-29 15:25:00,
2013-05-29 11:30:00,56.0,54.3,30.02,SW,232,0.0,2.0,94,0.00,,,0.40,VWS V14.01,2013-05-29 15:30:00,
2013-05-29 11:35:00,56.2,54.5,30.02,SW,232,0.0,0.0,94,0.00,,,0.40,VWS V14.01,2013-05-29 15:35:00,
2013-05-29 11:40:00,56.5,54.8,30.02,SW,232,0.0,1.0,94,0.00,,,0.40,VWS V14.01,2013-05-29 15:40:00,
2013-05-29 11:45:00,56.5,54.8,30.02,SW,221,0.0,0.0,94,0.00,,,0.40,VWS V14.01,2013-05-29 15:45:00,
2013-05-29 11:50:00,56.5,54.5,30.02,SSW,193,2.0,3.0,93,0.00,,,0.40,VWS V14.01,2013-05-29 15:50:00,
2013-05-29 11:55:00,56.4,54.7,30.01,South,178,0.0,0.0,94,0.00,,,0.40,VWS V14.01,2013-05-29 15:55:00,
2013-05-29 12:00:00,56.5,54.8,30.01,East,86,0.0,9.0,94,0.00,,,0.40,VWS V14.01,2013-05-29 16:00:00,
2013-05-29 12:05:00,56.6,54.9,30.02,WSW,240,0.0,0.0,94,0.00,,,0.40,VWS V14.01,2013-05-29 16:05:00,
2013-05-29 12:10:00,56.9,55.2,30.02,SW,219,0.0,5.0,94,0.00,,,0.40,VWS V14.01,2013-05-29 16:10:00,
2013-05-29 12:15:00,57.2,55.5,30.02,NW,317,0.0,2.0,94,0.00,,,0.40,VWS V14.01,2013-05-29 16:15:00,
2013-05-29 12:20:00,57.3,55.6,30.02,SW,235,0.0,2.0,94,0.00,,,0.40,VWS V14.01,2013-05-29 16:20:00,
2013-05-29 12:25:00,57.3,55.3,30.02,NNW,327,0.0,0.0,93,0.00,,,0.40,VWS V14.01,2013-05-29 16:25:00,
2013-05-29 12:30:00,57.4,55.4,30.02,SSE,147,0.0,4.0,93,0.00,,,0.40,VWS V14.01,2013-05-29 16:30:00,
2013-05-29 12:35:00,57.8,55.8,30.01,SW,236,0.0,0.0,93,0.00,,,0.40,VWS V14.01,2013-05-29 16:35:00,
2013-05-29 12:40:00,58.5,56.8,30.01,West,275,0.0,2.0,94,0.00,,,0.40,VWS V14.01,2013-05-29 16:40:00,
2013-05-29 12:45:00,58.9,56.6,30.02,WNW,298,0.0,0.0,92,0.00,,,0.40,VWS V14.01,2013-05-29 16:45:00,
2013-05-29 12:50:00,58.8,56.5,30.01,NNW,332,0.0,3.0,92,0.00,,,0.40,VWS V14.01,2013-05-29 16:50:00,
2013-05-29 12:55:00,58.5,56.2,30.01,WSW,238,0.0,1.0,92,0.00,,,0.40,VWS V14.01,2013-05-29 16:55:00,
2013-05-29 13:00:00,58.7,56.7,30.01,WSW,253,0.0,4.0,93,0.00,,,0.40,VWS V14.01,2013-05-29 17:00:00,
2013-05-29 13:05:00,59.0,56.7,30.00,WSW,248,0.0,1.0,92,0.00,,,0.40,VWS V14.01,2013-05-29 17:05:00,
2013-05-29 13:10:00,59.2,56.6,30.01,NW,306,0.0,4.0,91,0.00,,,0.40,VWS V14.01,2013-05-29 17:10:00,
2013-05-29 13:15:00,59.4,57.1,30.00,NNW,343,1.0,1.0,92,0.00,,,0.40,VWS V14.01,2013-05-29 17:15:00,
2013-05-29 13:20:00,59.4,56.8,30.01,NNW,348,0.0,3.0,91,0.00,,,0.40,VWS V14.01,2013-05-29 17:20:00,
2013-05-29 13:25:00,59.1,56.8,30.01,NNW,339,0.0,0.0,92,0.00,,,0.40,VWS V14.01,2013-05-29 17:25:00,
2013-05-29 13:30:00,59.0,56.7,30.01,NNW,330,0.0,0.0,92,0.00,,,0.40,VWS V14.01,2013-05-29 17:30:00,
2013-05-29 13:35:00,59.0,56.7,30.01,West,263,0.0,0.0,92,0.00,,,0.40,VWS V14.01,2013-05-29 17:35:00,
2013-05-29 13:40:00,59.0,56.7,30.01,SW,221,0.0,4.0,92,0.00,,,0.40,VWS V14.01,2013-05-29 17:40:00,
2013-05-29 13:45:00,59.0,56.7,30.00,SW,225,0.0,0.0,92,0.00,,,0.40,VWS V14.01,2013-05-29 17:45:00,
2013-05-29 13:50:00,59.0,56.7,30.00,West,266,0.0,2.0,92,0.00,,,0.40,VWS V14.01,2013-05-29 17:50:00,
2013-05-29 13:55:00,58.9,56.3,30.01,WSW,249,0.0,0.0,91,0.00,,,0.40,VWS V14.01,2013-05-29 17:55:00,
2013-05-29 14:00:00,58.8,56.5,30.00,WSW,252,0.0,2.0,92,0.00,,,0.40,VWS V14.01,2013-05-29 18:00:00,
2013-05-29 14:05:00,59.0,56.7,30.00,WSW,253,1.0,1.0,92,0.00,,,0.40,VWS V14.01,2013-05-29 18:05:00,
2013-05-29 14:10:00,59.6,57.3,30.00,SW,236,0.0,4.0,92,0.00,,,0.40,VWS V14.01,2013-05-29 18:10:00,
2013-05-29 14:15:00,60.1,57.8,30.00,South,171,0.0,0.0,92,0.00,,,0.40,VWS V14.01,2013-05-29 18:15:00,
2013-05-29 14:20:00,60.7,58.1,30.00,WNW,291,0.0,1.0,91,0.00,,,0.40,VWS V14.01,2013-05-29 18:20:00,
2013-05-29 14:25:00,61.0,57.4,30.00,South,187,1.0,3.0,88,0.00,,,0.40,VWS V14.01,2013-05-29 18:25:00,
2013-05-29 14:30:00,61.1,57.8,30.00,WNW,299,0.0,3.0,89,0.00,,,0.40,VWS V14.01,2013-05-29 18:30:00,
2013-05-29 14:35:00,61.2,57.9,30.00,West,275,0.0,0.0,89,0.00,,,0.40,VWS V14.01,2013-05-29 18:35:00,
2013-05-29 14:40:00,61.3,58.3,30.00,WNW,294,0.0,1.0,90,0.00,,,0.40,VWS V14.01,2013-05-29 18:40:00,
2013-05-29 14:45:00,61.2,57.6,30.00,West,260,0.0,0.0,88,0.00,,,0.40,VWS V14.01,2013-05-29 18:45:00,
2013-05-29 14:50:00,61.2,57.9,30.00,West,259,0.0,1.0,89,0.00,,,0.40,VWS V14.01,2013-05-29 18:50:00,
2013-05-29 14:55:00,61.3,57.7,30.00,WNW,286,1.0,1.0,88,0.00,,,0.40,VWS V14.01,2013-05-29 18:55:00,
2013-05-29 15:00:00,61.0,57.7,30.00,SW,233,0.0,4.0,89,0.00,,,0.40,VWS V14.01,2013-05-29 19:00:00,
2013-05-29 15:05:00,61.0,57.7,30.00,SW,232,0.0,4.0,89,0.00,,,0.40,VWS V14.01,2013-05-29 19:05:00,
2013-05-29 15:10:00,61.1,57.8,30.00,SW,221,0.0,4.0,89,0.00,,,0.40,VWS V14.01,2013-05-29 19:10:00,
2013-05-29 15:15:00,61.7,58.1,29.99,SW,234,0.0,5.0,88,0.00,,,0.40,VWS V14.01,2013-05-29 19:15:00,
2013-05-29 15:20:00,62.7,58.8,29.99,NNW,331,0.0,7.0,87,0.00,,,0.40,VWS V14.01,2013-05-29 19:20:00,
2013-05-29 15:25:00,62.9,58.3,29.99,WNW,283,0.0,7.0,85,0.00,,,0.40,VWS V14.01,2013-05-29 19:25:00,
2013-05-29 15:30:00,62.8,58.6,29.99,WSW,242,1.0,5.0,86,0.00,,,0.40,VWS V14.01,2013-05-29 19:30:00,
2013-05-29 15:35:00,62.7,57.8,29.99,South,182,0.0,5.0,84,0.00,,,0.40,VWS V14.01,2013-05-29 19:35:00,
2013-05-29 15:40:00,62.3,58.1,29.99,West,271,0.0,4.0,86,0.00,,,0.40,VWS V14.01,2013-05-29 19:40:00,
2013-05-29 15:45:00,62.3,58.1,29.99,NW,308,0.0,4.0,86,0.00,,,0.40,VWS V14.01,2013-05-29 19:45:00,
2013-05-29 15:50:00,62.2,58.0,29.98,WNW,286,2.0,6.0,86,0.00,,,0.40,VWS V14.01,2013-05-29 19:50:00,
2013-05-29 15:55:00,62.5,58.6,29.98,West,279,0.0,6.0,87,0.00,,,0.40,VWS V14.01,2013-05-29 19:55:00,
2013-05-29 16:00:00,62.8,59.2,29.98,SW,234,0.0,4.0,88,0.00,,,0.40,VWS V14.01,2013-05-29 20:00:00,
2013-05-29 16:05:00,62.6,58.7,29.98,SW,230,0.0,5.0,87,0.00,,,0.40,VWS V14.01,2013-05-29 20:05:00,
2013-05-29 16:10:00,62.5,58.6,29.98,WSW,249,2.0,3.0,87,0.00,,,0.40,VWS V14.01,2013-05-29 20:10:00,
2013-05-29 16:15:00,62.3,58.4,29.98,South,178,2.0,6.0,87,0.00,,,0.40,VWS V14.01,2013-05-29 20:15:00,
2013-05-29 16:20:00,62.2,58.6,29.98,South,169,4.0,5.0,88,0.00,,,0.40,VWS V14.01,2013-05-29 20:20:00,
2013-05-29 16:25:00,62.0,58.4,29.98,SW,221,0.0,5.0,88,0.00,,,0.40,VWS V14.01,2013-05-29 20:25:00,
2013-05-29 16:30:00,61.8,58.2,29.98,WSW,257,0.0,3.0,88,0.00,,,0.40,VWS V14.01,2013-05-29 20:30:00,
2013-05-29 16:35:00,61.7,58.4,29.98,WSW,246,0.0,3.0,89,0.00,,,0.40,VWS V14.01,2013-05-29 20:35:00,
2013-05-29 16:40:00,61.4,58.1,29.98,SW,236,0.0,3.0,89,0.00,,,0.40,VWS V14.01,2013-05-29 20:40:00,
2013-05-29 16:45:00,61.3,58.3,29.98,SW,236,0.0,3.0,90,0.00,,,0.40,VWS V14.01,2013-05-29 20:45:00,
2013-05-29 16:50:00,61.4,58.5,29.97,ESE,123,0.0,4.0,90,0.00,,,0.40,VWS V14.01,2013-05-29 20:50:00,
2013-05-29 16:55:00,61.6,58.6,29.98,ESE,123,0.0,4.0,90,0.00,,,0.40,VWS V14.01,2013-05-29 20:55:00,
2013-05-29 17:00:00,61.7,59.0,29.98,ESE,123,0.0,1.0,91,0.00,,,0.40,VWS V14.01,2013-05-29 21:00:00,
2013-05-29 17:05:00,61.8,59.5,29.98,ESE,123,0.0,1.0,92,0.00,,,0.40,VWS V14.01,2013-05-29 21:05:00,
2013-05-29 17:10:00,61.9,59.5,29.97,ESE,123,0.0,0.0,92,0.00,,,0.40,VWS V14.01,2013-05-29 21:10:00,
2013-05-29 17:15:00,61.8,59.2,29.97,East,88,0.0,1.0,91,0.00,,,0.40,VWS V14.01,2013-05-29 21:15:00,
2013-05-29 17:20:00,61.5,58.8,29.97,NE,44,0.0,1.0,91,0.00,,,0.40,VWS V14.01,2013-05-29 21:20:00,
2013-05-29 17:25:00,61.8,59.8,29.97,NE,44,0.0,1.0,93,0.00,,,0.40,VWS V14.01,2013-05-29 21:25:00,
2013-05-29 17:30:00,61.8,59.2,29.97,NE,38,0.0,0.0,91,0.00,,,0.40,VWS V14.01,2013-05-29 21:30:00,
2013-05-29 17:35:00,62.1,59.5,29.96,NE,38,0.0,0.0,91,0.00,,,0.40,VWS V14.01,2013-05-29 21:35:00,
2013-05-29 17:40:00,62.3,59.3,29.97,NE,38,0.0,1.0,90,0.00,,,0.40,VWS V14.01,2013-05-29 21:40:00,
2013-05-29 17:45:00,62.6,59.9,29.97,NE,38,0.0,1.0,91,0.00,,,0.40,VWS V14.01,2013-05-29 21:45:00,
2013-05-29 17:50:00,63.0,60.0,29.96,NE,38,0.0,0.0,90,0.00,,,0.40,VWS V14.01,2013-05-29 21:50:00,
2013-05-29 17:55:00,63.4,59.8,29.96,NE,38,0.0,1.0,88,0.00,,,0.40,VWS V14.01,2013-05-29 21:55:00,
2013-05-29 18:00:00,63.6,60.0,29.96,NE,38,0.0,0.0,88,0.00,,,0.40,VWS V14.01,2013-05-29 22:00:00,
2013-05-29 18:05:00,63.6,60.0,29.96,NE,38,0.0,0.0,88,0.00,,,0.40,VWS V14.01,2013-05-29 22:05:00,
2013-05-29 18:10:00,63.5,59.9,29.96,NE,38,0.0,0.0,88,0.00,,,0.40,VWS V14.01,2013-05-29 22:10:00,
2013-05-29 18:15:00,63.1,59.8,29.96,NE,38,0.0,0.0,89,0.00,,,0.40,VWS V14.01,2013-05-29 22:15:00,
2013-05-29 18:20:00,62.9,59.3,29.96,NE,38,0.0,0.0,88,0.00,,,0.40,VWS V14.01,2013-05-29 22:20:00,
2013-05-29 18:25:00,62.7,59.7,29.96,NE,38,0.0,0.0,90,0.00,,,0.40,VWS V14.01,2013-05-29 22:25:00,
2013-05-29 18:30:00,62.5,59.5,29.95,NE,38,0.0,0.0,90,0.01,,,0.41,VWS V14.01,2013-05-29 22:30:00,
2013-05-29 18:35:00,62.3,59.6,29.95,NE,38,0.0,0.0,91,0.02,,,0.42,VWS V14.01,2013-05-29 22:35:00,
2013-05-29 18:40:00,62.0,59.7,29.95,NE,38,0.0,0.0,92,0.02,,,0.42,VWS V14.01,2013-05-29 22:40:00,
2013-05-29 18:45:00,61.8,59.8,29.95,NE,38,0.0,0.0,93,0.02,,,0.42,VWS V14.01,2013-05-29 22:45:00,
2013-05-29 18:50:00,61.6,59.6,29.96,NE,38,0.0,0.0,93,0.02,,,0.42,VWS V14.01,2013-05-29 22:50:00,
2013-05-29 18:55:00,61.3,59.3,29.95,NE,38,0.0,0.0,93,0.03,,,0.43,VWS V14.01,2013-05-29 22:55:00,
2013-05-29 19:00:00,61.2,59.5,29.95,NE,38,0.0,0.0,94,0.03,,,0.43,VWS V14.01,2013-05-29 23:00:00,
2013-05-29 19:05:00,61.2,59.5,29.94,NE,38,0.0,0.0,94,0.03,,,0.43,VWS V14.01,2013-05-29 23:05:00,
2013-05-29 19:10:00,61.4,59.7,29.95,NE,38,0.0,0.0,94,0.03,,,0.43,VWS V14.01,2013-05-29 23:10:00,
2013-05-29 19:15:00,61.3,59.9,29.96,NE,38,0.0,0.0,95,0.03,,,0.43,VWS V14.01,2013-05-29 23:15:00,
2013-05-29 19:20:00,61.2,59.8,29.96,NE,38,0.0,1.0,95,0.03,,,0.43,VWS V14.01,2013-05-29 23:20:00,
2013-05-29 19:25:00,61.1,59.7,29.96,NE,38,0.0,1.0,95,0.03,,,0.43,VWS V14.01,2013-05-29 23:25:00,
2013-05-29 19:30:00,61.1,59.7,29.96,NE,38,0.0,0.0,95,0.03,,,0.43,VWS V14.01,2013-05-29 23:30:00,
2013-05-29 19:35:00,61.1,59.7,29.95,NE,38,0.0,0.0,95,0.03,,,0.43,VWS V14.01,2013-05-29 23:35:00,
2013-05-29 19:40:00,61.0,59.6,29.95,NE,38,0.0,0.0,95,0.01,,,0.43,VWS V14.01,2013-05-29 23:40:00,
2013-05-29 19:45:00,60.9,59.5,29.95,NE,38,0.0,0.0,95,0.01,,,0.43,VWS V14.01,2013-05-29 23:45:00,
2013-05-29 19:50:00,60.9,59.5,29.95,NE,38,0.0,0.0,95,0.01,,,0.43,VWS V14.01,2013-05-29 23:50:00,
2013-05-29 19:55:00,60.7,59.3,29.95,NE,38,0.0,0.0,95,0.01,,,0.43,VWS V14.01,2013-05-29 23:55:00,
2013-05-29 20:00:00,60.6,59.5,29.95,NE,38,0.0,0.0,96,0.00,,,0.43,VWS V14.01,2013-05-30 00:00:00,
2013-05-29 20:05:00,60.5,59.4,29.95,NE,38,0.0,0.0,96,0.00,,,0.43,VWS V14.01,2013-05-30 00:05:00,
2013-05-29 20:10:00,60.4,59.3,29.95,NE,38,0.0,0.0,96,0.00,,,0.43,VWS V14.01,2013-05-30 00:10:00,
2013-05-29 20:15:00,60.3,59.2,29.95,NE,38,0.0,0.0,96,0.00,,,0.43,VWS V14.01,2013-05-30 00:15:00,
2013-05-29 20:19:00,60.2,59.1,29.95,NE,38,0.0,0.0,96,0.00,,,0.43,VWS V14.01,2013-05-30 00:19:00,
2013-05-29 20:24:00,60.1,59.0,29.95,NE,38,0.0,0.0,96,0.00,,,0.43,VWS V14.01,2013-05-30 00:24:00,
2013-05-29 20:29:00,60.1,59.0,29.95,NE,38,0.0,0.0,96,0.00,,,0.43,VWS V14.01,2013-05-30 00:29:00,
2013-05-29 20:34:00,60.0,58.9,29.94,NE,38,0.0,0.0,96,0.00,,,0.43,VWS V14.01,2013-05-30 00:34:00,
2013-05-29 20:39:00,59.9,58.8,29.94,NE,38,0.0,0.0,96,0.00,,,0.43,VWS V14.01,2013-05-30 00:39:00,
2013-05-29 20:44:00,59.9,58.8,29.94,NE,38,0.0,0.0,96,0.00,,,0.43,VWS V14.01,2013-05-30 00:44:00,
2013-05-29 20:49:00,59.8,58.7,29.94,NE,38,0.0,0.0,96,0.00,,,0.43,VWS V14.01,2013-05-30 00:49:00,
2013-05-29 20:54:00,59.9,58.8,29.95,NE,38,0.0,1.0,96,0.00,,,0.43,VWS V14.01,2013-05-30 00:54:00,
2013-05-29 20:59:00,59.9,59.0,29.94,NE,38,0.0,0.0,97,0.00,,,0.43,VWS V14.01,2013-05-30 00:59:00,
2013-05-29 21:04:00,60.0,59.2,29.95,NE,38,0.0,1.0,97,0.00,,,0.43,VWS V14.01,2013-05-30 01:04:00,
2013-05-29 21:09:00,60.0,59.2,29.95,NE,38,0.0,0.0,97,0.00,,,0.43,VWS V14.01,2013-05-30 01:09:00,
2013-05-29 21:14:00,60.1,59.2,29.94,NE,38,0.0,0.0,97,0.00,,,0.43,VWS V14.01,2013-05-30 01:14:00,
2013-05-29 21:19:00,60.1,59.2,29.95,SSE,162,0.0,2.0,97,0.00,,,0.43,VWS V14.01,2013-05-30 01:19:00,
2013-05-29 21:24:00,60.0,59.2,29.95,SSE,162,0.0,2.0,97,0.00,,,0.43,VWS V14.01,2013-05-30 01:24:00,
2013-05-29 21:29:00,59.7,58.6,29.95,NNW,334,0.0,3.0,96,0.00,,,0.43,VWS V14.01,2013-05-30 01:29:00,
2013-05-29 21:34:00,59.5,58.7,29.95,South,180,0.0,3.0,97,0.00,,,0.43,VWS V14.01,2013-05-30 01:34:00,
2013-05-29 21:39:00,59.6,58.8,29.95,South,180,0.0,1.0,97,0.00,,,0.43,VWS V14.01,2013-05-30 01:39:00,
2013-05-29 21:44:00,59.8,59.0,29.95,NNW,334,0.0,4.0,97,0.00,,,0.43,VWS V14.01,2013-05-30 01:44:00,
2013-05-29 21:49:00,59.5,58.7,29.95,NNW,334,0.0,0.0,97,0.00,,,0.43,VWS V14.01,2013-05-30 01:49:00,
2013-05-29 21:54:00,59.2,58.3,29.96,NE,53,2.0,3.0,97,0.00,,,0.43,VWS V14.01,2013-05-30 01:54:00,
2013-05-29 21:59:00,59.0,58.2,29.96,NE,53,0.0,3.0,97,0.00,,,0.43,VWS V14.01,2013-05-30 01:59:00,
2013-05-29 22:04:00,59.0,58.2,29.96,SSW,199,0.0,3.0,97,0.00,,,0.43,VWS V14.01,2013-05-30 02:04:00,
2013-05-29 22:09:00,58.8,58.0,29.96,North,350,0.0,3.0,97,0.00,,,0.43,VWS V14.01,2013-05-30 02:09:00,
2013-05-29 22:14:00,59.5,58.7,29.95,SW,230,3.0,4.0,97,0.00,,,0.43,VWS V14.01,2013-05-30 02:14:00,
2013-05-29 22:19:00,61.8,61.2,29.95,WSW,240,2.0,6.0,98,0.00,,,0.43,VWS V14.01,2013-05-30 02:19:00,
2013-05-29 22:24:00,62.6,62.0,29.95,SW,225,0.0,6.0,98,0.00,,,0.43,VWS V14.01,2013-05-30 02:24:00,
2013-05-29 22:29:00,60.8,59.7,29.95,West,274,0.0,2.0,96,0.00,,,0.43,VWS V14.01,2013-05-30 02:29:00,
2013-05-29 22:34:00,62.3,61.7,29.95,SW,232,0.0,5.0,98,0.00,,,0.43,VWS V14.01,2013-05-30 02:34:00,
2013-05-29 22:39:00,61.7,60.8,29.96,SW,232,0.0,4.0,97,0.00,,,0.43,VWS V14.01,2013-05-30 02:39:00,
2013-05-29 22:44:00,61.2,60.3,29.96,NW,316,0.0,4.0,97,0.00,,,0.43,VWS V14.01,2013-05-30 02:44:00,
2013-05-29 22:49:00,60.3,59.5,29.96,NW,316,0.0,4.0,97,0.00,,,0.43,VWS V14.01,2013-05-30 02:49:00,
2013-05-29 22:54:00,59.7,58.8,29.96,South,169,2.0,4.0,97,0.00,,,0.43,VWS V14.01,2013-05-30 02:54:00,
2013-05-29 22:59:00,62.6,62.0,29.96,SSW,202,4.0,5.0,98,0.00,,,0.43,VWS V14.01,2013-05-30 02:59:00,
2013-05-29 23:04:00,63.4,62.8,29.97,SW,229,4.0,5.0,98,0.00,,,0.43,VWS V14.01,2013-05-30 03:04:00,
2013-05-29 23:09:00,63.4,62.8,29.97,SW,223,4.0,5.0,98,0.00,,,0.43,VWS V14.01,2013-05-30 03:09:00,
2013-05-29 23:14:00,63.4,62.8,29.97,SSW,207,4.0,5.0,98,0.00,,,0.43,VWS V14.01,2013-05-30 03:14:00,
2013-05-29 23:19:00,63.4,62.8,29.97,SW,218,3.0,5.0,98,0.00,,,0.43,VWS V14.01,2013-05-30 03:19:00,
2013-05-29 23:24:00,63.3,62.7,29.97,SW,236,3.0,5.0,98,0.00,,,0.43,VWS V14.01,2013-05-30 03:24:00,
2013-05-29 23:29:00,63.5,62.9,29.97,SW,221,0.0,4.0,98,0.00,,,0.43,VWS V14.01,2013-05-30 03:29:00,
2013-05-29 23:34:00,63.3,62.7,29.98,SW,221,3.0,4.0,98,0.00,,,0.43,VWS V14.01,2013-05-30 03:34:00,
2013-05-29 23:39:00,63.3,62.4,29.98,SW,221,0.0,3.0,97,0.00,,,0.43,VWS V14.01,2013-05-30 03:39:00,
2013-05-29 23:44:00,63.2,62.3,29.98,SW,234,5.0,5.0,97,0.00,,,0.43,VWS V14.01,2013-05-30 03:44:00,
2013-05-29 23:49:00,63.3,62.4,29.98,SSW,209,4.0,5.0,97,0.00,,,0.43,VWS V14.01,2013-05-30 03:49:00,
2013-05-29 23:54:00,63.3,62.4,29.98,SW,217,3.0,5.0,97,0.00,,,0.43,VWS V14.01,2013-05-30 03:54:00,
2013-05-29 23:59:00,63.5,62.6,29.98,SSW,203,0.0,5.0,97,0.00,,,0.43,VWS V14.01,2013-05-30 03:59:00,